sat.trackr.live / text

‹ back to catalog

STARLINK-11729 [DTC]

NORAD 64073 · 2025-107K

PAYLOAD ACTIVE UNKNOWN

§ Identity

Operator
Country
US
Launch date
2025-05-21
Launch site
AFETR
Launch vehicle
Mass (kg)
RCS (m²)

Purposes: comms

External: N2YO · Heavens-Above · Gunter

§ Orbital elements

Epoch: 2026-09-20T07:44:43.814976Z

Period
91.67 min
Inclination
43.0001°
Eccentricity
0.0001601
Mean motion
15.70885766 rev/d
Perigee alt
355.3 km
Apogee alt
357.4 km
Semi-major
6,734.5 km
B*
1.0011e-3
RAAN
5.5073°
Arg perigee
270.9870°
Mean anomaly
89.0814°
Rev number
7,790

§ Raw data

STARLINK-11729 [DTC]1 64073U 25107K   26263.32272934  .00130289  00000+0  10011-2 0  99932 64073  43.0001   5.5073 0001601 270.9870  89.0814 15.70885766 77907

JSON: /api/v1/satellites/64073 · /tle

For live sub-satellite position, see the globe view (requires WebGL).

§ Visibility from observer

Set your observer location to see the next 7 days of passes ≥ 10°. The values pass through the URL so the page stays shareable.

No JS? Fill the form by hand. The geolocation button needs JavaScript.